This is the latest recevied weather packets stored in our database for station/object K3RUP-1. If no packets are shown the sender has not sent any weather packets the latest 10 day(s).
| Time | Temp. | Humidity | Pressure | Rain* | Wind** | Luminosity | Snow |
|---|---|---|---|---|---|---|---|
| 1777848400 | 16.11° C | 35% | 1013.3 hPa | 0 mm | - | 26 W/m² | - |
| 1777848098 | 16.11° C | 34% | 1013.5 hPa | 0 mm | - | 28 W/m² | - |
| 1777847796 | 16.67° C | 34% | 1013.6 hPa | 0 mm | - | 29 W/m² | - |
| 1777847492 | 16.67° C | 35% | 1013.2 hPa | 0 mm | - | 30 W/m² | - |
| 1777847189 | 16.67° C | 32% | 1013.2 hPa | 0 mm | - | 32 W/m² | - |
| 1777846887 | 16.67° C | 35% | 1013.2 hPa | 0 mm | - | 33 W/m² | - |
| 1777846585 | 16.67° C | 34% | 1013.2 hPa | 0 mm | - | 33 W/m² | - |
| 1777846282 | 16.67° C | 31% | 1013.5 hPa | 0 mm | - | 42 W/m² | - |
| 1777845979 | 16.67° C | 31% | 1013.4 hPa | 0 mm | - | 63 W/m² | - |
| 1777845676 | 17.22° C | 32% | 1013.4 hPa | 0 mm | - | 128 W/m² | - |
| 1777845373 | 17.22° C | 34% | 1013.6 hPa | 0 mm | - | 56 W/m² | - |
| 1777845069 | 17.22° C | 31% | 1013.2 hPa | 0 mm | - | 46 W/m² | - |
| 1777844768 | 17.22° C | 33% | 1013.4 hPa | 0 mm | - | 56 W/m² | - |
| 1777844463 | 17.22° C | 32% | 1013.2 hPa | 0 mm | - | 157 W/m² | - |
| 1777844163 | 16.67° C | 31% | 1013.3 hPa | 0 mm | - | 111 W/m² | - |
| 1777843858 | 17.22° C | 33% | 1013.3 hPa | 0 mm | - | 88 W/m² | - |
| 1777843556 | 17.22° C | 33% | 1013.4 hPa | 0 mm | - | 198 W/m² | - |
| 1777843254 | 17.22° C | 31% | 1013.4 hPa | 0 mm | - | 97 W/m² | - |
| 1777842951 | 17.22° C | 31% | 1013 hPa | 0 mm | - | 142 W/m² | - |
| 1777842646 | 17.22° C | 36% | 1013.4 hPa | 0 mm | - | 82 W/m² | - |
| 1777842343 | 17.78° C | 33% | 1013.4 hPa | 0 mm | - | 262 W/m² | - |
| 1777842038 | 17.78° C | 34% | 1013.5 hPa | 0 mm | - | 412 W/m² | - |
| 1777841736 | 17.78° C | 33% | 1013.3 hPa | 0 mm | - | 405 W/m² | - |
| 1777841432 | 18.33° C | 33% | 1013.3 hPa | 0 mm | - | 335 W/m² | - |
| 1777841129 | 17.78° C | 33% | 1013.3 hPa | 0 mm | - | 359 W/m² | - |
* Rain latest hour (hover to see other rain measurements)
** Current wind speed in m/s (hover to see current wind gust speed)